Wind_Speed
45 45 46 47 46 46 46 46 46 44 44 42 43 43 42 43 42 41 40 40 39 38 39 39 39 39 38 38 38 37 37 38 38 38 38 38 38 38
44 44 45 46 46 45 44 44 44 44 43 42 43 43 42 42 43 43 41 40 40 39 39 40 40 38 38 38 37 38 38 38 38 38 38 38 38 38
44 44 44 44 44 44 43 43 44 43 43 42 42 41 42 42 43 42 40 40 40 40 40 40 39 38 38 38 38 39 39 39 38 38 38 38 37 37
44 44 44 44 43 43 43 42 43 43 42 41 40 40 41 42 43 42 40 40 41 41 40 39 39 39 38 39 39 39 39 39 39 38 37 37 36 36
44 44 44 44 43 43 43 43 43 43 41 41 40 40 40 41 41 41 40 40 40 40 39 39 38 38 38 39 39 38 38 38 38 37 36 35 35 35
42 42 43 43 43 43 44 43 42 42 41 40 39 39 39 39 40 40 38 38 38 38 38 38 38 38 38 37 37 37 36 36 36 35 35 34 34 34
40 41 42 42 42 42 43 42 41 41 41 39 38 38 38 38 38 38 37 36 37 37 37 38 38 38 37 38 37 36 35 34 34 34 33 33 33 32
38 39 40 40 40 41 41 41 40 39 40 39 38 38 37 37 36 37 37 37 37 37 37 37 37 37 37 36 35 35 34 33 33 33 32 32 32 31
36 37 38 38 39 38 38 38 38 37 38 38 38 37 36 36 36 36 36 36 35 35 36 36 36 36 36 35 34 34 33 33 32 31 32 32 31 30
33 34 35 36 37 37 36 35 36 36 36 37 36 36 35 35 35 35 34 33 32 32 33 33 34 34 35 34 34 32 31 31 30 30 30 30 30 30
31 32 33 34 35 35 35 35 36 36 35 35 36 35 35 35 35 33 32 32 32 32 32 32 33 33 33 33 33 31 30 29 29 29 29 29 29 29
31 31 32 32 33 33 33 33 33 33 33 34 34 34 33 33 33 32 31 32 32 32 32 31 31 31 31 30 30 29 28 28 28 28 28 28 28 27
30 30 31 31 31 32 32 32 32 32 31 31 31 31 31 31 31 31 31 31 31 31 31 30 29 28 28 28 28 27 27 27 26 27 27 26 25 25
28 29 29 30 31 31 30 31 31 30 30 30 30 29 28 28 29 29 28 28 28 28 28 28 27 26 26 25 25 25 25 25 25 25 25 24 24 24
27 28 29 29 30 30 29 28 29 28 28 28 27 27 27 26 26 26 25 25 25 25 26 26 25 25 25 23 23 22 22 22 22 23 23 22 22 22
24 25 26 27 27 27 27 27 27 27 27 27 26 26 25 25 24 24 24 24 24 24 24 24 23 23 23 22 21 20 20 21 21 21 21 21 20 20
22 23 23 24 24 24 24 25 25 25 25 25 24 24 24 23 22 22 22 22 22 22 22 22 21 21 21 21 21 20 19 19 19 19 19 19 20 20
20 19 19 20 21 22 22 22 22 23 23 23 23 23 22 22 21 21 20 20 20 20 20 20 21 21 21 20 20 19 18 18 18 18 18 18 18 18
18 17 18 18 18 19 20 21 21 21 21 22 22 22 21 21 21 21 20 19 19 19 19 20 20 19 19 18 17 17 17 18 18 17 17 16 16 16
17 17 17 18 17 17 18 20 20 20 20 20 19 20 21 21 21 20 20 19 19 19 19 19 18 18 17 17 17 17 17 17 16 16 16 15 15 15
15 16 16 15 15 15 16 17 18 18 19 19 20 20 20 20 20 20 19 19 19 19 18 18 17 16 16 16 17 17 17 16 16 14 14 13 13 13
14 14 14 14 14 14 14 15 16 16 16 17 18 19 19 19 19 19 18 18 18 17 16 16 16 16 15 15 15 15 15 15 14 13 13 13 13 13
12 11 11 12 13 13 13 14 14 14 15 15 16 17 18 18 18 18 18 17 15 15 14 15 15 15 15 14 14 14 14 14 13 13 13 13 13 12
Wind_Direction
260 262 262 261 260 261 260 260 261 263 262 263 263 265 267 269 270 270 270 272 273 275 277 280 281 284 285 285 286 288 289 291 294 296 296 297 298 298
258 260 261 261 260 260 260 260 261 263 263 262 263 264 266 268 269 269 270 270 272 274 276 278 279 280 283 284 286 288 288 290 293 294 295 296 298 298
257 259 260 260 260 260 259 259 260 262 264 263 263 263 264 267 268 268 269 270 271 273 274 277 277 278 281 283 286 287 288 288 290 292 295 296 297 299
258 259 259 259 259 259 258 259 259 262 263 264 263 262 264 266 267 267 269 270 271 271 272 275 277 279 280 282 285 287 288 288 289 291 294 295 297 298
259 258 257 257 257 257 258 259 259 261 262 263 263 263 264 265 266 267 269 270 271 270 272 275 277 278 281 283 284 285 286 287 288 290 292 294 296 298
258 257 256 257 257 258 259 260 260 260 260 262 263 263 264 264 264 266 268 269 270 271 272 273 275 278 281 283 284 284 284 285 287 289 292 295 297 298
259 257 257 257 258 259 259 259 260 260 261 263 263 264 263 263 264 265 267 268 269 271 271 272 275 277 278 280 281 283 283 284 286 289 292 294 296 298
258 257 256 257 259 260 260 261 261 261 262 261 260 262 263 263 263 265 266 267 268 270 270 272 275 275 277 278 279 281 282 283 285 288 291 293 295 297
258 257 256 257 259 259 260 262 261 261 262 261 260 261 261 262 264 266 266 268 269 269 271 273 275 275 277 278 279 281 281 283 285 287 290 292 293 295
258 257 256 256 258 259 260 262 262 262 263 261 260 261 262 264 265 266 266 268 268 270 273 274 274 274 275 277 279 280 282 283 284 287 290 291 292 293
259 258 256 256 257 258 260 263 263 262 262 261 260 261 262 263 264 264 265 265 268 271 273 275 274 274 275 278 279 279 281 283 286 288 291 291 292 293
259 259 258 256 257 258 261 263 263 262 262 261 260 260 260 260 262 264 265 268 271 270 271 274 274 274 275 277 279 278 279 283 287 290 291 291 292 292
262 262 261 259 259 261 262 262 262 261 260 260 258 258 259 260 260 262 266 270 271 270 271 272 273 274 276 276 276 276 278 283 288 291 291 292 292 293
264 262 262 262 260 260 262 263 262 260 259 257 256 256 259 259 259 262 266 269 270 271 270 269 270 272 273 273 272 274 277 282 286 290 291 293 294 294
265 264 264 264 262 260 260 261 258 256 255 254 254 256 259 261 261 262 265 269 270 269 268 268 269 270 271 270 271 273 275 280 285 289 292 293 294 295
267 266 265 264 260 258 255 256 254 253 252 251 252 256 258 259 259 261 264 267 267 268 268 268 267 268 267 267 270 273 276 280 285 290 293 294 294 297
269 268 266 263 259 256 255 253 251 249 248 249 252 253 253 254 257 259 262 263 265 266 267 265 263 264 266 267 267 272 277 281 287 290 292 293 293 296
269 267 265 262 261 258 255 251 247 245 246 249 250 249 249 251 254 257 259 260 262 263 262 263 264 263 263 263 268 271 275 280 285 290 294 294 293 295
266 265 264 262 262 259 254 251 248 247 248 247 247 246 247 249 251 252 255 257 258 260 262 262 263 262 262 264 270 272 277 280 284 287 290 292 294 296
268 266 264 262 261 257 250 250 250 248 246 246 248 247 247 249 252 250 251 253 256 260 262 261 260 263 264 265 270 273 277 280 284 286 290 293 297 299
269 267 264 260 257 253 250 250 249 248 247 248 248 247 248 248 248 247 249 253 256 260 259 258 260 263 264 266 270 274 277 280 285 286 291 295 297 298
271 266 261 255 252 249 249 247 247 248 250 249 246 245 245 245 244 244 245 248 252 254 255 257 260 262 263 266 270 273 278 282 284 287 293 297 298 297
271 264 258 254 252 251 249 244 245 248 251 249 245 243 243 243 244 244 244 244 247 250 253 256 259 263 264 267 274 277 279 282 283 284 291 297 299 298
Height
5638 5639 5641 5643 5645 5647 5649 5651 5654 5656 5659 5660 5661 5662 5662 5663 5664 5664 5664 5665 5665 5666 5666 5666 5665 5664 5662 5661 5659 5657 5655 5652 5649 5646 5643 5639 5636 5632
5626 5628 5630 5631 5634 5635 5637 5639 5641 5644 5646 5649 5650 5651 5652 5652 5653 5653 5654 5654 5654 5655 5655 5655 5655 5654 5653 5651 5650 5648 5645 5643 5640 5637 5634 5630 5627 5623
5615 5617 5619 5620 5622 5624 5625 5627 5630 5632 5635 5638 5639 5640 5641 5642 5642 5643 5643 5643 5643 5644 5644 5644 5644 5644 5643 5642 5640 5638 5636 5634 5631 5628 5625 5622 5618 5614
5604 5606 5608 5609 5611 5613 5615 5617 5619 5621 5623 5626 5627 5628 5629 5630 5631 5632 5632 5633 5633 5634 5634 5634 5634 5634 5633 5632 5631 5629 5626 5624 5622 5619 5616 5613 5610 5606
5593 5595 5597 5598 5600 5602 5604 5606 5608 5610 5612 5614 5616 5617 5618 5619 5620 5620 5621 5622 5623 5623 5623 5624 5624 5624 5624 5623 5620 5619 5617 5615 5613 5610 5607 5604 5601 5597
5582 5584 5586 5588 5590 5592 5594 5595 5597 5599 5601 5603 5605 5606 5607 5608 5609 5610 5611 5612 5613 5613 5613 5614 5614 5614 5614 5613 5611 5609 5607 5606 5603 5601 5598 5595 5592 5589
5571 5573 5575 5577 5579 5581 5583 5585 5586 5588 5590 5592 5594 5596 5597 5598 5600 5601 5602 5602 5603 5604 5604 5604 5605 5604 5603 5602 5601 5600 5598 5597 5595 5592 5590 5587 5584 5581
5561 5563 5565 5567 5569 5570 5572 5574 5576 5578 5580 5582 5584 5586 5588 5589 5590 5590 5592 5593 5595 5595 5595 5594 5594 5594 5593 5592 5592 5591 5589 5588 5586 5584 5582 5579 5576 5573
5550 5552 5555 5557 5558 5560 5562 5563 5565 5567 5569 5572 5574 5576 5578 5579 5580 5581 5582 5583 5584 5584 5584 5584 5584 5584 5583 5583 5583 5582 5581 5579 5577 5575 5573 5571 5568 5565
5541 5543 5545 5547 5548 5550 5552 5554 5555 5557 5559 5561 5564 5567 5568 5569 5570 5572 5572 5573 5574 5573 5574 5575 5574 5574 5574 5574 5573 5573 5572 5571 5569 5567 5565 5563 5560 5558
5532 5534 5535 5537 5539 5541 5543 5544 5546 5548 5549 5551 5554 5556 5558 5559 5560 5561 5562 5564 5565 5565 5565 5565 5565 5565 5565 5565 5564 5564 5563 5562 5561 5559 5557 5555 5553 5550
5524 5525 5527 5528 5530 5531 5533 5535 5537 5538 5540 5541 5544 5546 5547 5549 5551 5553 5554 5555 5556 5557 5557 5557 5557 5556 5556 5556 5556 5556 5555 5554 5553 5551 5549 5547 5545 5543
5516 5517 5518 5519 5520 5522 5524 5526 5527 5529 5531 5533 5535 5537 5539 5541 5542 5544 5545 5546 5547 5548 5548 5548 5548 5548 5548 5548 5548 5548 5548 5547 5545 5544 5542 5540 5538 5536
5507 5508 5509 5510 5512 5513 5515 5516 5518 5519 5522 5524 5527 5529 5531 5533 5535 5536 5537 5537 5538 5539 5539 5540 5540 5540 5540 5540 5541 5541 5540 5540 5539 5537 5535 5533 5531 5529
5499 5500 5501 5502 5503 5505 5506 5508 5509 5511 5514 5516 5519 5522 5524 5526 5527 5528 5529 5530 5530 5531 5532 5532 5533 5533 5533 5534 5534 5534 5534 5533 5532 5531 5529 5527 5526 5524
5491 5492 5493 5493 5495 5496 5498 5499 5501 5504 5506 5509 5512 5514 5516 5517 5519 5521 5522 5523 5524 5524 5525 5525 5525 5526 5527 5527 5528 5528 5528 5528 5527 5525 5523 5522 5520 5518
5484 5485 5485 5486 5487 5489 5490 5492 5494 5497 5499 5502 5504 5506 5508 5510 5512 5513 5515 5516 5517 5518 5518 5519 5519 5520 5520 5521 5521 5521 5522 5522 5521 5520 5519 5517 5515 5513
5477 5478 5479 5480 5481 5482 5484 5485 5488 5490 5493 5495 5497 5499 5501 5503 5505 5507 5509 5510 5511 5512 5512 5513 5514 5514 5515 5515 5516 5516 5516 5516 5515 5514 5513 5512 5511 5509
5472 5472 5473 5474 5475 5476 5478 5480 5482 5484 5486 5489 5491 5493 5495 5497 5499 5501 5503 5504 5505 5506 5506 5507 5508 5508 5509 5510 5511 5511 5511 5511 5510 5509 5508 5507 5506 5504
5467 5467 5468 5469 5470 5471 5473 5475 5476 5478 5481 5483 5485 5488 5490 5492 5493 5495 5497 5499 5500 5501 5501 5502 5503 5503 5504 5505 5506 5506 5505 5505 5505 5504 5503 5502 5501 5500
5462 5462 5463 5464 5465 5467 5468 5470 5472 5474 5476 5478 5480 5483 5484 5486 5488 5490 5492 5493 5494 5495 5496 5497 5498 5498 5499 5500 5500 5501 5500 5500 5500 5499 5498 5498 5497 5496
5458 5458 5458 5459 5461 5462 5464 5466 5468 5470 5471 5473 5475 5477 5479 5481 5483 5485 5487 5488 5490 5491 5492 5493 5493 5494 5494 5495 5495 5495 5495 5495 5494 5494 5493 5493 5493 5492
5454 5454 5455 5456 5457 5459 5460 5462 5464 5465 5467 5469 5470 5472 5475 5477 5479 5480 5482 5483 5485 5486 5487 5488 5489 5489 5489 5490 5490 5490 5490 5490 5490 5490 5490 5489 5488 5488